Wind_Speed
13 9 8 11 11 10 9 9 9 7 6 5 5 5 5 5 8 7 7 8 9 8 7 8 10 12 11 11 11 10 10 9 7 5 5 5 6 4 2 1 1 3 5
13 10 12 11 11 11 9 7 7 6 5 4 5 6 6 7 6 5 5 6 8 8 7 7 9 10 10 9 10 12 11 10 8 7 5 2 5 5 4 2 1 1 3
12 12 10 12 11 10 10 6 5 6 5 5 5 5 6 6 5 4 4 3 4 6 6 6 7 6 7 7 10 10 10 10 10 12 9 9 8 7 5 3 2 1 3
12 13 12 13 10 11 9 6 6 6 4 4 4 5 5 5 5 4 4 4 3 3 2 4 5 5 3 5 7 8 9 10 12 18 11 9 6 4 3 4 2 2 3
11 13 13 12 11 13 10 9 9 7 6 7 7 9 8 7 6 4 4 4 3 1 1 2 1 4 5 5 7 9 10 11 13 13 19 12 5 4 5 3 2 1 2
12 12 13 12 15 15 15 17 15 13 13 13 14 15 15 13 11 7 4 2 3 2 1 2 2 2 3 5 7 8 11 12 11 11 12 12 11 9 3 2 2 1 3
12 14 13 15 18 20 19 19 20 19 18 18 19 17 16 15 14 13 12 10 8 8 6 5 7 6 4 3 4 7 7 8 6 7 7 9 8 8 10 6 3 2 5
13 15 12 17 20 19 19 19 20 18 19 20 18 16 15 16 17 17 15 14 13 13 13 12 12 9 7 6 9 9 9 9 7 7 7 8 8 6 5 4 2 3 6
13 12 13 18 20 19 19 20 19 19 19 19 18 14 15 14 15 15 15 14 15 15 15 15 14 12 10 8 8 9 9 9 9 7 6 6 8 10 10 7 6 6 7
13 11 15 18 19 18 19 19 18 19 18 17 15 13 14 13 11 14 12 13 14 14 15 15 14 13 11 8 6 7 7 9 10 10 8 8 9 9 9 9 8 8 10
12 12 17 19 18 19 19 18 17 18 17 14 13 11 12 13 12 11 13 14 16 16 16 15 13 13 13 11 6 5 6 6 6 6 8 8 7 6 7 7 9 9 10
13 15 17 19 17 19 20 17 15 16 15 15 12 15 14 11 12 16 16 15 14 15 16 18 18 18 16 15 15 9 5 6 6 7 6 6 7 9 8 8 11 13 14
14 16 17 19 17 21 20 16 16 15 13 14 11 13 12 12 13 12 15 12 14 19 21 20 21 22 23 22 17 14 5 3 5 6 7 9 10 11 12 14 16 17 17
16 17 18 18 20 22 20 16 16 16 15 15 13 11 13 11 14 14 10 12 15 17 19 16 18 20 20 20 19 21 19 12 6 5 7 12 13 13 12 11 12 17 17
19 18 18 17 21 21 22 19 17 18 15 15 12 11 11 9 10 10 10 10 12 15 16 16 21 22 22 21 21 19 19 17 13 11 10 11 13 15 17 19 20 20 21
20 19 19 19 22 21 21 21 20 17 16 15 12 10 11 11 11 9 9 7 11 13 15 18 21 25 25 25 22 18 19 18 19 19 18 17 17 17 17 16 16 18 21
21 20 19 20 23 21 19 18 19 14 15 13 11 11 11 11 13 11 9 9 11 13 16 21 22 26 23 29 26 21 16 16 18 19 21 21 22 21 20 20 21 23 24
20 20 21 20 22 22 20 18 16 13 12 10 9 9 10 11 12 12 9 9 13 13 19 22 26 21 26 23 21 21 19 19 21 21 20 23 24 24 26 26 28 30 31
18 19 21 22 22 21 18 15 12 11 8 6 5 7 10 11 11 10 6 8 13 16 16 21 25 24 25 24 22 24 23 23 24 25 25 25 25 26 28 29 32 32 32
17 21 20 22 21 18 17 14 12 8 6 4 4 7 10 9 9 7 6 9 12 13 13 17 20 22 25 30 26 24 24 24 26 25 25 26 28 30 32 35 35 35 35
18 20 20 21 21 18 16 14 11 6 3 2 4 8 10 9 9 5 4 6 7 10 14 14 19 18 22 26 28 22 23 23 25 26 27 31 31 33 34 36 36 37 39
20 20 19 20 20 18 16 12 7 5 3 2 4 6 7 9 9 4 3 5 5 12 17 20 21 22 25 27 29 20 15 20 25 29 31 32 32 35 36 37 38 39 38
18 19 20 20 18 16 14 12 9 5 4 1 2 4 5 7 8 3 2 6 10 13 16 18 19 22 26 28 26 15 15 18 22 31 32 31 34 36 36 38 36 39 42
19 19 19 18 17 14 13 10 7 5 4 1 1 3 6 7 7 3 5 9 12 15 17 22 24 28 29 30 26 24 21 22 23 24 31 33 35 36 37 36 38 42 44
16 18 18 18 15 13 11 9 7 5 4 2 0 2 4 4 4 3 7 10 14 17 21 24 25 30 28 30 12 18 20 23 24 25 28 32 34 37 34 38 42 44 40
15 15 17 17 15 12 11 10 9 6 6 5 3 2 4 2 1 4 6 12 18 21 24 28 29 28 24 17 18 21 20 23 26 30 31 33 35 36 33 39 43 39 35
Wind_Direction
127 100 131 123 105 96 82 78 77 72 77 69 65 75 76 89 99 92 86 92 85 86 83 73 66 60 64 62 69 73 69 64 64 63 58 81 89 64 68 122 217 178 156
136 139 122 103 92 90 82 76 71 73 82 69 72 77 93 101 99 91 78 80 83 80 80 77 69 69 73 74 71 61 57 50 35 18 359 315 133 133 130 107 157 174 141
135 116 105 98 105 97 86 85 82 77 58 57 73 91 111 121 119 118 101 98 110 97 81 76 77 78 70 62 60 57 48 39 28 0 312 251 179 154 156 123 81 34 62
125 117 113 105 100 94 94 101 87 70 60 88 99 116 121 126 127 131 120 113 119 156 115 107 86 76 71 65 68 60 44 43 23 24 21 129 177 172 175 137 118 30 33
120 119 109 104 99 96 95 87 84 96 106 104 102 97 95 91 99 111 124 137 149 176 120 108 83 43 21 24 24 28 25 23 29 36 43 74 53 326 274 225 131 95 30
120 117 116 103 99 96 99 98 99 109 108 102 92 88 82 71 60 53 61 111 135 155 167 130 75 81 7 8 12 9 16 14 6 12 40 56 47 28 18 195 140 44 357
118 116 111 105 103 103 101 102 99 103 106 103 96 92 89 86 84 81 76 82 99 104 103 104 94 85 71 33 4 359 15 43 33 36 52 50 48 52 62 113 132 337 320
114 115 115 113 110 103 105 104 101 103 102 100 95 94 93 83 79 81 81 83 83 90 93 97 96 94 78 36 3 1 4 11 10 21 25 35 25 25 30 34 30 318 312
114 115 117 117 116 109 107 105 106 104 101 98 99 97 85 81 81 78 75 72 70 67 66 66 66 62 59 38 19 359 356 358 355 7 17 16 355 350 352 354 347 332 310
119 119 122 123 122 114 111 109 113 107 105 101 103 96 94 86 97 79 77 73 70 74 70 63 56 52 50 31 357 338 335 337 333 333 339 349 346 342 348 346 334 327 322
119 116 128 128 122 117 111 116 113 108 103 104 99 91 87 87 85 73 63 62 64 62 62 64 58 45 35 23 3 324 296 308 321 335 339 337 332 344 357 343 320 307 304
116 127 134 130 126 119 117 117 107 108 108 103 100 90 91 88 76 65 55 55 56 44 42 44 37 32 19 14 15 342 291 301 299 326 324 327 341 340 338 323 320 316 312
122 137 137 133 127 117 116 113 104 100 105 99 100 101 93 73 77 66 46 38 31 41 51 36 32 33 27 18 12 32 52 286 283 308 325 326 328 327 324 317 312 316 309
133 141 140 136 126 119 115 111 107 101 102 96 93 86 82 81 70 65 50 34 27 44 37 45 38 33 22 13 28 46 50 50 21 337 332 318 314 315 316 326 332 322 324
141 143 145 137 127 122 119 117 112 112 108 96 87 81 71 75 74 64 49 37 36 36 34 28 25 16 15 20 17 37 38 38 31 19 356 345 339 335 337 331 327 329 332
140 148 149 138 127 126 123 120 116 114 102 98 93 82 57 44 54 54 52 46 46 36 33 29 24 21 19 12 8 14 23 18 14 9 1 352 344 338 336 331 329 324 327
145 150 148 138 132 132 133 121 119 114 109 91 80 63 50 40 41 57 57 53 57 49 33 28 21 18 14 28 15 9 3 11 3 359 360 357 356 349 340 333 326 325 322
147 148 149 143 137 137 141 126 119 105 84 84 75 57 46 35 34 40 41 38 58 47 29 16 21 12 17 21 11 7 3 360 0 356 353 355 352 351 347 341 341 335 330
150 154 158 146 145 143 147 135 122 102 91 87 73 57 52 41 30 40 40 47 53 41 30 15 16 16 10 7 17 9 5 358 354 353 351 348 346 344 344 342 337 329 327
160 161 162 149 153 148 143 136 121 106 99 88 76 49 39 43 41 35 42 52 47 41 25 28 21 27 14 10 4 4 355 350 342 343 349 347 347 344 341 336 334 332 326
164 167 162 155 161 156 151 144 144 136 132 81 33 36 19 21 47 29 45 72 46 28 21 26 11 4 358 358 349 346 341 341 338 338 343 343 341 341 337 335 333 330 327
169 169 163 164 169 163 160 161 170 169 156 103 24 23 15 2 31 39 27 52 27 15 4 4 354 345 347 343 349 343 333 329 330 332 336 336 336 334 334 332 332 329 326
166 170 169 172 170 167 166 172 182 179 182 122 30 4 14 5 11 59 44 1 6 359 354 343 338 340 338 338 348 346 326 327 335 331 332 332 332 330 330 328 326 323 320
174 174 172 175 175 172 177 180 188 165 167 162 66 341 353 12 6 24 19 11 4 349 338 341 335 333 333 340 334 344 343 335 334 330 325 328 329 329 328 324 324 323 319
175 171 176 177 177 179 183 190 206 195 192 189 232 343 345 358 352 5 10 359 340 340 348 340 332 331 328 325 320 337 341 336 332 331 330 330 330 326 325 324 325 318 320
180 174 172 173 179 183 183 193 205 197 197 189 199 296 322 335 74 7 345 341 358 355 347 338 330 325 316 312 344 347 343 341 338 340 337 332 332 328 326 320 318 317 322
Height
5888 5887 5887 5885 5887 5889 5890 5890 5891 5891 5892 5892 5892 5892 5892 5892 5892 5892 5890 5889 5889 5889 5889 5889 5889 5889 5888 5888 5888 5889 5890 5890 5889 5888 5889 5889 5890 5892 5893 5893 5893 5891 5890
5887 5887 5888 5890 5892 5891 5892 5893 5892 5893 5893 5894 5894 5893 5893 5893 5893 5892 5891 5890 5891 5891 5890 5890 5891 5890 5890 5889 5889 5890 5890 5890 5890 5889 5889 5888 5887 5889 5892 5892 5893 5892 5890
5889 5891 5893 5894 5894 5894 5894 5895 5894 5894 5894 5894 5893 5893 5893 5893 5893 5892 5891 5891 5891 5890 5890 5891 5891 5891 5890 5890 5890 5891 5891 5892 5891 5888 5887 5886 5886 5886 5889 5890 5890 5891 5889
5892 5894 5896 5896 5896 5896 5896 5897 5896 5896 5896 5895 5894 5894 5894 5894 5893 5892 5891 5890 5891 5890 5890 5892 5893 5892 5891 5892 5892 5893 5892 5892 5890 5887 5883 5884 5887 5888 5889 5888 5889 5890 5890
5896 5897 5898 5898 5898 5898 5898 5897 5897 5897 5898 5897 5897 5897 5897 5896 5895 5893 5892 5891 5890 5891 5892 5892 5893 5893 5891 5892 5893 5893 5892 5891 5890 5888 5886 5886 5888 5888 5888 5888 5888 5889 5889
5899 5900 5900 5899 5899 5899 5900 5900 5899 5899 5900 5901 5901 5900 5899 5898 5897 5896 5894 5893 5892 5891 5892 5892 5892 5893 5892 5891 5891 5892 5892 5891 5891 5889 5888 5887 5887 5886 5884 5885 5886 5885 5885
5901 5901 5901 5901 5902 5902 5902 5902 5903 5903 5903 5903 5903 5902 5900 5899 5898 5898 5897 5896 5894 5893 5892 5893 5892 5893 5892 5891 5891 5891 5892 5891 5890 5891 5890 5888 5888 5886 5884 5883 5882 5882 5883
5901 5901 5903 5903 5904 5905 5904 5905 5906 5906 5906 5906 5905 5904 5903 5902 5901 5900 5900 5898 5897 5896 5894 5894 5894 5893 5894 5893 5890 5890 5889 5890 5891 5891 5890 5890 5889 5887 5885 5883 5882 5882 5881
5902 5903 5904 5906 5906 5906 5907 5908 5908 5909 5909 5908 5908 5906 5906 5905 5904 5903 5902 5901 5901 5900 5899 5897 5897 5896 5895 5894 5892 5889 5889 5889 5888 5888 5888 5887 5887 5885 5883 5882 5881 5881 5880
5903 5904 5906 5908 5908 5908 5909 5910 5911 5913 5912 5912 5910 5909 5908 5908 5906 5905 5905 5904 5902 5902 5901 5899 5898 5896 5896 5894 5891 5889 5888 5887 5886 5885 5884 5884 5885 5884 5883 5881 5881 5880 5879
5905 5906 5908 5910 5911 5911 5911 5913 5914 5915 5914 5914 5912 5911 5911 5910 5909 5908 5907 5906 5904 5902 5901 5901 5900 5898 5897 5895 5891 5889 5887 5885 5884 5884 5884 5884 5883 5882 5881 5880 5880 5878 5877
5906 5908 5910 5912 5913 5913 5913 5915 5916 5917 5916 5915 5913 5914 5913 5912 5911 5910 5908 5907 5905 5904 5901 5899 5899 5898 5896 5893 5890 5886 5885 5885 5885 5885 5884 5883 5883 5881 5880 5879 5878 5877 5875
5908 5910 5912 5914 5915 5915 5915 5916 5918 5918 5918 5917 5916 5916 5916 5915 5914 5911 5910 5908 5907 5904 5902 5900 5898 5897 5897 5895 5891 5886 5884 5883 5884 5884 5884 5883 5883 5881 5879 5877 5875 5873 5871
5910 5912 5915 5916 5916 5917 5918 5918 5920 5920 5919 5919 5919 5919 5919 5918 5916 5913 5912 5910 5909 5907 5905 5904 5902 5901 5900 5899 5896 5890 5888 5887 5886 5885 5885 5882 5881 5880 5878 5875 5874 5871 5868
5912 5914 5916 5918 5918 5919 5919 5920 5921 5923 5922 5922 5923 5923 5922 5920 5916 5915 5914 5912 5912 5911 5908 5906 5904 5902 5901 5899 5896 5893 5891 5890 5888 5886 5885 5882 5878 5875 5872 5871 5870 5867 5865
5913 5914 5917 5920 5921 5921 5921 5922 5923 5925 5924 5926 5926 5925 5923 5921 5919 5917 5915 5914 5914 5912 5910 5908 5906 5903 5900 5897 5894 5894 5891 5890 5889 5887 5885 5881 5879 5876 5872 5870 5867 5864 5862
5914 5916 5918 5921 5923 5923 5924 5924 5925 5928 5926 5927 5928 5927 5925 5923 5921 5918 5917 5916 5914 5913 5913 5912 5909 5907 5903 5896 5894 5891 5890 5889 5888 5885 5883 5880 5876 5873 5870 5868 5864 5860 5856
5915 5917 5919 5921 5924 5925 5927 5926 5927 5928 5928 5928 5928 5928 5926 5925 5923 5921 5919 5918 5916 5916 5914 5912 5912 5907 5903 5898 5896 5891 5889 5886 5884 5882 5879 5876 5874 5870 5867 5862 5857 5854 5851
5915 5919 5921 5921 5924 5927 5928 5928 5929 5929 5930 5932 5931 5930 5928 5926 5926 5924 5921 5920 5919 5918 5917 5914 5911 5908 5903 5900 5897 5894 5890 5888 5884 5880 5877 5874 5871 5868 5863 5860 5856 5853 5848
5916 5920 5923 5922 5925 5928 5929 5929 5930 5931 5932 5934 5933 5930 5930 5929 5928 5926 5923 5921 5922 5921 5919 5916 5912 5907 5903 5899 5897 5894 5891 5886 5884 5880 5876 5873 5870 5867 5862 5858 5853 5847 5843
5918 5921 5922 5923 5927 5928 5929 5931 5933 5934 5934 5933 5932 5930 5929 5930 5929 5928 5925 5924 5923 5921 5918 5915 5910 5905 5903 5901 5896 5892 5889 5885 5880 5876 5875 5872 5869 5864 5859 5853 5849 5844 5838
5917 5920 5922 5925 5927 5929 5930 5932 5934 5935 5934 5933 5933 5932 5931 5930 5929 5928 5925 5924 5923 5920 5917 5914 5910 5906 5903 5900 5896 5891 5888 5883 5878 5876 5874 5871 5867 5861 5856 5850 5843 5838 5833
5919 5920 5922 5925 5928 5930 5931 5932 5934 5935 5935 5935 5934 5933 5933 5931 5930 5929 5927 5925 5923 5920 5916 5913 5909 5906 5902 5898 5893 5890 5887 5884 5880 5873 5869 5866 5863 5858 5852 5846 5840 5835 5830
5918 5920 5921 5924 5927 5929 5931 5933 5934 5935 5935 5935 5935 5934 5933 5931 5930 5929 5928 5926 5924 5920 5916 5912 5909 5905 5901 5896 5891 5889 5887 5883 5880 5877 5868 5862 5858 5854 5848 5843 5838 5831 5823
5917 5920 5921 5923 5926 5929 5931 5932 5933 5935 5935 5935 5935 5934 5933 5932 5930 5931 5930 5927 5924 5920 5916 5912 5907 5904 5899 5893 5890 5889 5885 5881 5878 5873 5868 5861 5855 5850 5844 5838 5831 5824 5818
5916 5920 5922 5923 5926 5928 5930 5932 5932 5934 5935 5936 5936 5935 5934 5932 5932 5932 5930 5927 5924 5920 5917 5912 5907 5899 5895 5891 5891 5889 5886 5881 5876 5870 5863 5856 5853 5846 5839 5834 5827 5819 5812